TimeCDT,TemperatureF,Dew PointF,Humidity,Sea Level PressureIn,VisibilityMPH,Wind Direction,Wind SpeedMPH,Gust SpeedMPH,PrecipitationIn,Events,Conditions,WindDirDegrees,DateUTC
12:15 AM,62.6,60.8,94,29.82,4.0,Calm,Calm,-,N/A,,Clear,0,2013-09-01 05:15:00
12:35 AM,60.8,60.8,100,29.82,3.0,Calm,Calm,-,N/A,,Scattered Clouds,0,2013-09-01 05:35:00
12:55 AM,60.8,59.0,94,29.81,4.0,Calm,Calm,-,N/A,,Scattered Clouds,0,2013-09-01 05:55:00
1:15 AM,59.0,59.0,100,29.80,0.5,Calm,Calm,-,N/A,Fog,Fog,0,2013-09-01 06:15:00
1:35 AM,60.8,60.8,100,29.80,4.0,Calm,Calm,-,N/A,,Mist,0,2013-09-01 06:35:00
1:55 AM,60.8,59.0,94,29.78,5.0,SE,4.6,-,N/A,,Mist,130,2013-09-01 06:55:00
2:15 AM,62.6,60.8,94,29.78,5.0,South,3.5,-,N/A,,Scattered Clouds,180,2013-09-01 07:15:00
2:35 AM,62.6,62.6,100,29.78,7.0,South,5.8,-,N/A,,Clear,170,2013-09-01 07:35:00
2:55 AM,62.6,62.6,100,29.76,7.0,SSE,6.9,-,N/A,,Clear,150,2013-09-01 07:55:00
3:15 AM,62.6,62.6,100,29.77,10.0,SSW,4.6,-,N/A,,Clear,210,2013-09-01 08:15:00
3:35 AM,62.6,62.6,100,29.78,10.0,WSW,3.5,-,N/A,,Clear,240,2013-09-01 08:35:00
3:55 AM,62.6,62.6,100,29.78,10.0,Calm,Calm,-,N/A,,Clear,0,2013-09-01 08:55:00
4:15 AM,62.6,62.6,100,29.79,10.0,SW,3.5,-,N/A,,Clear,230,2013-09-01 09:15:00
4:35 AM,62.6,62.6,100,29.78,10.0,Calm,Calm,-,N/A,,Scattered Clouds,0,2013-09-01 09:35:00
4:55 AM,62.6,62.6,100,29.76,10.0,South,3.5,-,N/A,,Scattered Clouds,170,2013-09-01 09:55:00
5:15 AM,64.4,62.6,94,29.76,10.0,Calm,Calm,-,N/A,,Clear,0,2013-09-01 10:15:00
5:35 AM,64.4,62.6,94,29.77,10.0,WSW,3.5,-,N/A,,Clear,240,2013-09-01 10:35:00
5:55 AM,64.4,62.6,94,29.78,10.0,Calm,Calm,-,N/A,,Clear,0,2013-09-01 10:55:00
6:15 AM,62.6,62.6,100,29.77,10.0,SSE,4.6,-,N/A,,Scattered Clouds,160,2013-09-01 11:15:00
6:35 AM,62.6,62.6,100,29.74,10.0,ESE,9.2,-,N/A,Rain,Light Rain,120,2013-09-01 11:35:00
6:55 AM,64.4,62.6,94,29.77,10.0,West,3.5,-,N/A,,Scattered Clouds,280,2013-09-01 11:55:00
7:15 AM,64.4,62.6,94,29.76,7.0,Calm,Calm,-,N/A,,Clear,0,2013-09-01 12:15:00
7:35 AM,64.4,64.4,100,29.77,10.0,SSW,3.5,-,N/A,,Clear,210,2013-09-01 12:35:00
7:55 AM,64.4,64.4,100,29.76,7.0,Calm,Calm,-,N/A,,Scattered Clouds,0,2013-09-01 12:55:00
8:15 AM,64.4,64.4,100,29.76,7.0,South,4.6,-,N/A,Rain,Light Rain,170,2013-09-01 13:15:00
8:35 AM,64.4,64.4,100,29.76,7.0,Calm,Calm,-,N/A,Rain,Light Rain,0,2013-09-01 13:35:00
8:55 AM,64.4,64.4,100,29.74,5.0,WSW,4.6,-,0.02,Rain,Light Rain,240,2013-09-01 13:55:00
9:15 AM,68.0,64.4,88,29.74,10.0,NW,5.8,-,N/A,,Mostly Cloudy,310,2013-09-01 14:15:00
9:35 AM,66.2,64.4,94,29.75,10.0,West,3.5,-,N/A,,Light Drizzle,260,2013-09-01 14:35:00
9:55 AM,68.0,66.2,94,29.74,10.0,SSW,3.5,-,N/A,,Scattered Clouds,210,2013-09-01 14:55:00
10:15 AM,69.8,66.2,88,29.74,10.0,SW,3.5,-,N/A,,Mostly Cloudy,220,2013-09-01 15:15:00
10:35 AM,71.6,68.0,88,29.74,10.0,West,6.9,-,N/A,,Scattered Clouds,260,2013-09-01 15:35:00
10:55 AM,71.6,68.0,88,29.74,10.0,West,5.8,-,N/A,,Mostly Cloudy,280,2013-09-01 15:55:00
11:15 AM,75.2,69.8,83,29.73,10.0,West,6.9,-,N/A,,Mostly Cloudy,260,2013-09-01 16:15:00
11:35 AM,75.2,68.0,78,29.74,10.0,West,10.4,16.1,N/A,,Mostly Cloudy,280,2013-09-01 16:35:00
11:55 AM,77.0,68.0,74,29.73,10.0,West,8.1,-,N/A,,Overcast,270,2013-09-01 16:55:00
12:15 PM,77.0,68.0,74,29.73,10.0,WNW,9.2,-,N/A,,Overcast,290,2013-09-01 17:15:00
12:35 PM,78.8,68.0,69,29.72,10.0,West,8.1,-,N/A,,Overcast,270,2013-09-01 17:35:00
12:55 PM,78.8,66.2,65,29.72,10.0,WNW,9.2,-,N/A,,Scattered Clouds,290,2013-09-01 17:55:00
1:15 PM,80.6,64.4,58,29.72,10.0,WNW,13.8,17.3,N/A,,Scattered Clouds,290,2013-09-01 18:15:00
1:35 PM,80.6,62.6,54,29.72,10.0,NW,10.4,19.6,N/A,,Scattered Clouds,310,2013-09-01 18:35:00
1:55 PM,80.6,62.6,54,29.72,10.0,NNW,11.5,21.9,N/A,,Mostly Cloudy,330,2013-09-01 18:55:00
2:15 PM,80.6,60.8,51,29.72,10.0,NW,12.7,-,N/A,,Scattered Clouds,310,2013-09-01 19:15:00
2:35 PM,80.6,60.8,51,29.73,10.0,NW,11.5,20.7,N/A,,Scattered Clouds,320,2013-09-01 19:35:00
2:55 PM,80.6,59.0,48,29.73,10.0,NNW,11.5,17.3,N/A,,Scattered Clouds,340,2013-09-01 19:55:00
3:15 PM,80.6,59.0,48,29.73,10.0,NW,15.0,19.6,N/A,,Scattered Clouds,320,2013-09-01 20:15:00
3:35 PM,80.6,55.4,42,29.74,10.0,NW,15.0,-,N/A,,Scattered Clouds,320,2013-09-01 20:35:00
3:55 PM,78.8,55.4,44,29.74,10.0,NW,13.8,20.7,N/A,,Clear,320,2013-09-01 20:55:00
4:15 PM,80.6,57.2,45,29.73,10.0,NNW,6.9,-,N/A,,Clear,340,2013-09-01 21:15:00
4:35 PM,78.8,55.4,44,29.74,10.0,NW,12.7,17.3,N/A,,Scattered Clouds,320,2013-09-01 21:35:00
4:55 PM,77.0,57.2,50,29.74,10.0,NNW,8.1,-,N/A,,Scattered Clouds,330,2013-09-01 21:55:00
5:15 PM,78.8,57.2,47,29.74,10.0,NW,12.7,-,N/A,,Scattered Clouds,320,2013-09-01 22:15:00
5:35 PM,78.8,59.0,51,29.76,10.0,NW,12.7,17.3,N/A,,Mostly Cloudy,310,2013-09-01 22:35:00
5:55 PM,78.8,57.2,47,29.77,10.0,NW,9.2,12.7,N/A,,Overcast,320,2013-09-01 22:55:00
6:15 PM,75.2,57.2,53,29.78,10.0,NNW,10.4,-,N/A,,Overcast,340,2013-09-01 23:15:00
6:35 PM,75.2,57.2,53,29.78,10.0,NNW,8.1,-,N/A,,Scattered Clouds,330,2013-09-01 23:35:00
6:55 PM,73.4,57.2,57,29.78,10.0,NW,9.2,-,N/A,,Clear,320,2013-09-01 23:55:00
7:15 PM,71.6,57.2,60,29.79,10.0,NW,8.1,-,N/A,,Clear,320,2013-09-02 00:15:00
7:35 PM,71.6,59.0,64,29.80,10.0,WNW,5.8,-,N/A,,Mostly Cloudy,300,2013-09-02 00:35:00
7:55 PM,69.8,59.0,68,29.80,10.0,WNW,4.6,-,N/A,,Scattered Clouds,300,2013-09-02 00:55:00
8:15 PM,68.0,59.0,73,29.81,10.0,WNW,4.6,-,N/A,,Clear,300,2013-09-02 01:15:00
8:35 PM,68.0,59.0,73,29.81,10.0,WNW,4.6,-,N/A,,Clear,300,2013-09-02 01:35:00
8:55 PM,68.0,59.0,73,29.82,10.0,WNW,3.5,-,N/A,,Scattered Clouds,300,2013-09-02 01:55:00
9:15 PM,68.0,60.8,78,29.82,10.0,NW,4.6,-,N/A,,Mostly Cloudy,320,2013-09-02 02:15:00
9:35 PM,68.0,59.0,73,29.83,10.0,NNW,3.5,-,N/A,,Overcast,340,2013-09-02 02:35:00
9:55 PM,68.0,59.0,73,29.83,10.0,NW,3.5,-,N/A,,Overcast,320,2013-09-02 02:55:00
10:15 PM,68.0,59.0,73,29.83,10.0,WNW,3.5,-,N/A,,Overcast,300,2013-09-02 03:15:00
10:35 PM,68.0,59.0,73,29.83,10.0,NW,3.5,-,N/A,,Overcast,310,2013-09-02 03:35:00
10:55 PM,64.4,59.0,83,29.84,10.0,NW,3.5,-,N/A,,Scattered Clouds,310,2013-09-02 03:55:00
11:15 PM,64.4,59.0,83,29.84,10.0,NNW,3.5,-,N/A,,Mostly Cloudy,330,2013-09-02 04:15:00
11:35 PM,66.2,59.0,78,29.85,10.0,NW,4.6,-,N/A,,Mostly Cloudy,310,2013-09-02 04:35:00
11:55 PM,64.4,59.0,83,29.85,10.0,WNW,4.6,-,N/A,,Mostly Cloudy,300,2013-09-02 04:55:00